Regional Weather Roundup
Issued by NWS

Home | Current Version | Previous Version | Text Only | Print | Product List | Glossary On
Versions: 1 2 3 4 5 6 7 8 9 10 11 12 13 14 15 16 17 18 19 20 21 22 23 24 25 26 27 28 29 30 31 32 33 34 35 36 37 38 39 40 41 42 43 44 45 46 47 48 49 50
000
ASUS44 KFWD 071110
RWRTX
NORTH TEXAS HOURLY WEATHER ROUNDUP
NATIONAL WEATHER SERVICE FORT WORTH TX
600 AM CDT TUE JUL 07 2015

NOTE: "FAIR" INDICATES FEW OR NO CLOUDS BELOW 12,000 FEET WITH NO
SIGNIFICANT WEATHER AND/OR OBSTRUCTIONS TO VISIBILITY.

TXZ118-119-071200-
DALLAS/FORT WORTH METROPLEX

CITY           SKY/WX    TMP DP  RH WIND       PRES   REMARKS
DFW AIRPORT    CLOUDY    80  73  79 S14       29.94F
DALLAS LOVE    CLOUDY    80  72  76 S12G18    29.96R
FTW MEACHAM    CLOUDY    79  73  82 S13       29.95R
DAL-EXECUTIVE  CLOUDY    78  73  84 S12G17    29.96R
FTW-ALLIANCE   CLOUDY    79  72  79 S9G17     29.95R
FTW-NAS-JRB    CLOUDY    79  74  84 S13       29.96R
FTW-SPINKS     CLOUDY    78  72  83 S10G16    29.97R HAZE
ARLINGTON      CLOUDY    79  72  79 S10G18    29.95S
GRAND PRAIRIE  CLOUDY    79  73  84 S9G17     29.97S
MESQUITE       CLOUDY    77  74  88 S14       29.97R
LANCASTER      CLOUDY    77  72  82 S10G16    29.98R
$$

TXZ091>094-102>105-117-120-121-131>134-071200-
NORTH CENTRAL TEXAS

CITY           SKY/WX    TMP DP  RH WIND       PRES   REMARKS
SHRMAN/DENISON CLOUDY    77  75  92 S9        29.97R
GAINESVILLE    CLOUDY    77  72  85 S7        29.97R
BRIDGEPORT     CLOUDY    78  72  81 S7        29.96S
DECATUR        CLOUDY    77  70  79 S9        29.96S
DENTON         CLOUDY    79  72  79 S10       29.95R
MCKINNEY       CLOUDY    80  72  76 S14       29.96S
GREENVILLE     CLOUDY    79  72  78 S9        29.98R
ROCKWALL       CLOUDY    78  74  88 S16G22    29.96S
TERRELL        CLOUDY    78  74  87 S13       29.98S
WAXAHACHIE     CLOUDY    77  74  91 S10G17    29.99R
CLEBURNE       CLOUDY    77  77 100 S9G18     29.98R
GRANBURY       CLOUDY    80  72  77 SE8       29.97R
$$

TXZ083>090-098>101-113>116-127>130-139>142-154-155-071200-
WESTERN NORTH TEXAS

CITY           SKY/WX    TMP DP  RH WIND       PRES   REMARKS
WICHITA FALLS  CLOUDY    77  71  82 S14       29.91S
WF-KICKAPOO    CLOUDY    78  71  77 SW10      29.93R
VERNON         CLOUDY    75  65  71 NW7       29.96R
ABILENE        TSTM      73  72  96 S10       29.94F FOG
ABILENE-DYESS  TSTM      72  72 100 NW10G24   29.96R FOG
BRECKENRIDGE   TSTM      76  75  96 SE5       29.95S
GRAHAM         CLOUDY    78  71  79 SE3       29.94R
MINERAL WELLS  CLOUDY    78  71  79 S10       29.94R
STEPHENVILLE   CLOUDY    76  71  83 S8        29.99R
COMANCHE       CLOUDY    76  72  86 S13G18    29.96R
BROWNWOOD      CLOUDY    77  72  83 S9        29.96R
COLEMAN        CLOUDY    77  72  83 S12       29.96R
$$

TXZ143>147-156>162-174-175-071200-
CENTRAL TEXAS

CITY           SKY/WX    TMP DP  RH WIND       PRES   REMARKS
WACO           CLOUDY    79  74  84 S15       29.97S
WACO-MCGREGOR  CLOUDY    79  72  78 S10       29.99S
HILLSBORO      CLOUDY    76  72  85 SE10      29.98R
CORSICANA      CLOUDY    79  74  84 S10       30.00R
MEXIA          CLOUDY    76  75  95 SE15G22   29.99S
HEARNE         CLOUDY    78  76  95 SE6       30.01R
CAMERON        CLOUDY    78  76  92 S7        29.99R
TEMPLE         CLOUDY    77  72  83 S13       29.98R
KILLEEN        CLOUDY    77  72  85 S14       29.97F
KILLEEN-SKYLRK CLOUDY    77  70  78 S10       29.98R
FORT HOOD      HAZE      77  72  83 S14       29.97R VSB 1
GATESVILLE     CLOUDY    79  72  78 S9        30.00R
HAMILTON       CLOUDY    76  74  94 S13       29.98S
LAMPASAS       CLOUDY    78  74  86 S8        29.98S
$$

TXZ095>097-106>112-122>126-135>138-148>153-164>167-071200-
EAST TEXAS

CITY           SKY/WX    TMP DP  RH WIND       PRES   REMARKS
PARIS          CLOUDY    75  72  88 S8        29.98S
SULPHUR SPRNGS CLOUDY    78  73  85 S12G20    30.00S
MOUNT PLEASANT CLOUDY    77  73  90 S10       30.01S
GILMER         CLOUDY    75  73  91 S6        30.01R
MINEOLA          N/A     79  75  89 S8        30.00S
TYLER          CLOUDY    78  73  84 S14       30.01R
LONGVIEW       MOCLDY    78  74  87 S8        30.01R
MARSHALL         N/A     76  73  91 CALM      30.05R
ATHENS         CLOUDY    77  73  88 S8        29.99S
PALESTINE      MOCLDY    77  75  93 SE5       30.02S
JACKSONVILLE   MOCLDY    76  74  94 S7        30.05R FOG
HENDERSON      CLOUDY    75  74  96 S3        30.04R
CENTER         FAIR      74  74  98 S3        30.03R
NACOGDOCHES    PTCLDY   N/A N/A N/A S5        30.03R
LUFKIN         CLOUDY    77  74  90 SE3       30.04R FOG
$$

SUPPLEMENTAL OBSERVATIONS (CENTRAL)

CITY           SKY/WX    TMP DP  RH WIND       PRES   REMARKS
CADDO GRASSLND   N/A     79  72  78 S12         N/A
PAT MAYSE LAKE   N/A     79  75  89 SE12        N/A
GREENVILLE       N/A     79  73  83 S10         N/A
CEDAR HILL       N/A     79  72  78 S15         N/A
MCGREGOR         N/A     77  73  88 S14         N/A
TEMPLE           N/A     79  75  89 S10         N/A
$$

SUPPLEMENTAL OBSERVATIONS (WEST)

CITY           SKY/WX    TMP DP  RH WIND       PRES   REMARKS
MILLERS CREEK    N/A     73  70  88 CALM        N/A
POSSUM KINGDOM   N/A     75  66  73 S9          N/A
LBJ GRASSLAND    N/A     77  72  83 S6          N/A
GRANBURY         N/A     79  72  78 S12         N/A
HAMBY            N/A     73  70  88 SE9         N/A
IVIE RESERVOIR   N/A     79  70  73 SE7G16      N/A
COLORADO BEND    N/A     77  70  78 SW8         N/A
$$

SUPPLEMENTAL OBSERVATIONS (EAST)

CITY           SKY/WX    TMP DP  RH WIND       PRES   REMARKS
TEXARKANA        N/A     75  70  83 S2          N/A
LINDEN           N/A     75  72  88 S3          N/A
GILMER           N/A     75  72  88 S5          N/A
HENDERSON        N/A     75  70  83 S6          N/A
LUFKIN           N/A     75  72  88 MISG        N/A
N SABINE NF      N/A     73  72  94 MISG        N/A
S SABINE NF      N/A     73  72  94 CALM        N/A
$$

SUPPLEMENTAL OBSERVATIONS ARE A COLLECTION OF AUTOMATED INSTRUMENTS
THAT ARE MAINTAINED BY A VARIETY OF FEDERAL AND STATE AGENCIES.
CERTAIN ELEMENTS...SUCH AS HUMIDITY VALUES AND SUSTAINED WIND
SPEEDS...MAY BE APPROXIMATED.




USA.gov is the U.S. government's official web portal to all federal, state and local government web resources and services.